www.pogodaiklimat.ru

Погода и климат >> Архив погоды >> Молдова >> Кишинев


АРХИВ ПОГОДЫ в Кишиневе

Время (UTC), дата Ветер
(напр.,м/с)
 
Видим.   Явления Облачность Т
(С)
Тd
(С)
f
(%)
Тe
(С)
Тes
(С)
Комфортность P
(гПа)
Po
(гПа)
Тmin
(С)
Tmax
(С)
R
(мм)
R24
(мм)
S
(см)
09 11.06 СВ 2 20 км 10/0
[Ac As Ci fib]
+27.6 +15.9 49 +31 +40 душно 1014.6 995.4
12 11.06 В 5 20 км 10/3 600 м
[Cu hum Ac As Ci]
+30.8 +11.2 30 +31 +34 жарко 1013.5 994.5
15 11.06 В 3 20 км 6/3 600 м
[Cu med, cong Ac trans Ci fib]
+30.6 +10.0 28 +30 +33 жарко 1012.7 993.7
18 11.06 С 2 20 км 6/0
[Ac trans Ci fib]
+26.3 +16.3 54 +30 +30 душно 1013.3 994.0 +31.5
21 11.06 С 2 20 км 5/0
[Ac trans Ci fib]
+24.0 +14.7 56 +27 +27 жарко 1014.0 994.5
00 12.06 С 2 20 км 3/0
[Ci fib]
+22.5 +12.7 54 +25 +25 комфорт 1013.6 994.0
03 12.06 С 4 20 км 9/0
[Ac trans Ci fib]
+21.2 +12.6 58 +23 +24 комфорт 1013.9 994.2
06 12.06 С 3 20 км 10/0
[Ac As Ci]
+23.3 +14.6 58 +27 +32 душно 1013.5 994.0 +21.1
09 12.06 С 3 20 км 6/0
[Ci]
+28.7 +14.2 41 +31 +44 жарко 1013.4 994.2
12 12.06 СВ 3 20 км 8/4 600 м
[Cu med, cong Ci]
+31.3 +10.6 28 +31 +38 жарко 1012.3 993.3
15 12.06 С 3 20 км 5/3 600 м
[Cu med, cong Ci]
+30.9 +10.8 29 +31 +34 жарко 1011.7 992.7
18 12.06 С 3 20 км 6/0
[Ac trans Ci]
+27.7 +13.3 41 +29 +29 жарко 1012.6 993.4 +32.1
21 12.06 С 3 20 км 3/0
[Ac trans Ci]
+25.5 +12.4 44 +27 +27 жарко 1013.4 994.0
00 13.06 С 3 20 км 3/0
[Ac trans Ci]
+23.7 +12.4 49 +26 +26 жарко 1013.3 993.9
03 13.06 С 2 20 км 3/3 600 м
[Cu med, cong Ci fib]
+22.5 +12.7 54 +25 +25 комфорт 1013.6 994.0
06 13.06 СВ 2 20 км 4/3 600 м
[Cu med, cong Ci fib]
+25.0 +15.1 54 +28 +33 жарко 1014.6 995.2 +22.4
09 13.06 СВ 2 20 км 1/0
[Cs]
+28.9 +14.3 41 +31 +48 жарко 1014.9 995.7
12 13.06 СВ 3 20 км 8/6 600 м
[Cu med, cong Ac lent]
+30.7 +12.6 33 +32 +35 жарко 1014.9 995.8
15 13.06 В 3 20 км 6/3 600 м
[Cu med, cong Ac As]
+28.8 +8.5 28 +28 +30 жарко 1015.2 996.0
18 13.06 С 2 20 км 8/4 600 м
[Cb calv Ac As]
+25.9 +10.5 38 +27 +27 жарко 1015.8 996.4 +31.5
21 13.06 В 3 20 км зарница 8/8 600 м
[Cb calv]
+24.0 +11.7 46 +26 +26 жарко 1017.1 997.6
00 14.06 С 4 20 км ливневой дождь {гроза} 10/10 600 м
[Cb calv]
+19.2 +14.9 76 +21 +21 комфорт 1016.8 997.0
03 14.06 С 5 20 км {ливн. осадки} 8/5 600 м
[Cu med, cong Ac trans Ci fib]
+20.1 +14.2 69 +22 +22 комфорт 1016.5 996.7
06 14.06 С 2 20 км {ливн. осадки} 3/0
[Ac trans Ci fib]
+23.4 +16.0 63 +28 +34 душно 1017.6 998.0 +18.9 3
09 14.06 СВ 3 20 км 5/0
[Ac trans Ci fib]
+28.1 +15.7 47 +31 +43 душно 1017.3 998.0
12 14.06 СВ 2 20 км 8/3 600 м
[Cu med, cong Ac cast Ci fib]
+30.5 +15.8 41 +33 +40 душно 1017.0 997.9
15 14.06 В 4 20 км гроза без осадков 9/9 600 м
[Cb cap]
+28.1 +14.0 42 +30 +30 жарко 1016.2 997.0
18 14.06 СЗ 2 20 км в посл. час ливневой дождь {гроза} 10/5 600 м
[Cb calv Ac trans Ci fib]
+24.9 +13.1 48 +27 +27 жарко 1016.5 997.0 +32.1 0.6
21 14.06 С 3 20 км 6/0
[Ac trans Ci fib]
+25.2 +12.4 45 +27 +27 жарко 1017.2 997.7
00 15.06 С 3 20 км 8/0
[Ac trans Ci fib]
+23.2 +15.0 60 +27 +27 душно 1016.4 996.8
03 15.06 С 3 20 км 4/0
[Ac trans Ci fib]
+22.2 +14.6 62 +26 +26 душно 1016.3 996.7
06 15.06 СВ 2 20 км 5/0
[Ci]
+25.4 +16.8 59 +29 +36 душно 1016.1 996.7 +22.2
09 15.06 В 2 20 км 10/8 600 м
[Cu med, cong Ci]
+29.8 +15.9 43 +33 +36 душно 1015.3 996.2
12 15.06 С 3 20 км гроза без осадков 10/8 600 м
[Cb calv Ci]
+32.0 +12.3 30 +32 +35 жарко 1013.5 994.5
15 15.06 З 1 20 км гроза без осадков {ливн. осадки} 10/6 600 м
[Cb calv Ci fib]
+25.1 +16.3 58 +28 +30 жарко 1013.4 994.0
18 15.06 В 2 20 км {гроза, ливн. осадки} 10/4 600 м
[Cb calv Ac trans Ci]
+25.1 +17.6 63 +29 +29 душно 1012.8 993.5 +32.4 0.3
21 15.06 С 2 20 км 5/0
[Ci]
+24.1 +16.9 64 +28 +28 душно 1013.6 994.2
00 16.06 С 1 20 км 8/0
[Ci]
+22.4 +15.3 64 +26 +26 жарко 1012.9 993.4
03 16.06 С 2 20 км 3/0
[Ci]
+21.8 +16.1 70 +26 +26 душно 1012.8 993.2
06 16.06 С 1 20 км 3/0
[Cs]
+25.7 +17.6 61 +30 +39 душно 1013.0 993.7 +21.6
09 16.06 В 2 20 км 5/4 600 м
[Cu med, cong Cs]
+30.0 +15.7 42 +33 +43 душно 1013.1 994.0
12 16.06 В 2 20 км 6/4 600 м
[Cu med, cong Ac trans]
+31.8 +11.6 29 +32 +39 жарко 1012.2 993.2
15 16.06 В 2 20 км 5/4 600 м
[Cu med, cong Ac trans]
+31.5 +10.8 28 +31 +34 жарко 1011.4 992.4
18 16.06 штиль 0 20 км 8/1 600 м
[Cu med, cong As trans Cs]
+28.9 +11.9 35 +30 +30 жарко 1011.5 992.4 +32.6
21 16.06 С 1 20 км 1/0
[Ci fib]
+26.0 +13.2 45 +28 +28 жарко 1012.5 993.2
00 17.06 С 2 20 км 1/0
[Ci fib]
+23.7 +13.9 54 +26 +26 жарко 1013.2 993.7
03 17.06 СВ 2 20 км 8/0
[Ac trans Ci fib]
+22.1 +15.2 65 +26 +26 душно 1014.1 994.5
06 17.06 ЮВ 1 20 км ясно +26.1 +14.6 49 +29 +38 жарко 1014.5 995.2 +22.0
09 17.06 СВ 3 20 км 3/1 600 м
[Cu hum Ci fib]
+29.4 +10.0 30 +29 +42 жарко 1014.4 995.2
12 17.06 В 3 20 км 4/3 600 м
[Cu med, cong Ci fib]
+30.8 +13.6 35 +32 +41 жарко 1013.5 994.5
15 17.06 В 3 20 км 5/3 600 м
[Cu hum Ac trans Ci fib]
+30.4 +13.7 36 +32 +34 жарко 1012.7 993.7
18 17.06 С 4 20 км 9/8 600 м
[Cb calv Ac trans]
+25.7 +15.1 52 +29 +29 душно 1014.7 995.3 +31.8
21 17.06 СЗ 3 20 км 8/3 600 м
[Sc Ac trans]
+20.1 +15.9 77 +23 +23 комфорт 1016.2 996.5
00 18.06 С 3 20 км 4/0
[Ac trans Ci fib]
+20.2 +15.8 76 +23 +23 комфорт 1015.9 996.2
03 18.06 СЗ 3 20 км 3/0
[Ci fib]
+19.7 +15.6 77 +22 +22 комфорт 1015.7 995.9
06 18.06 СВ 2 20 км 3/0 240 м
[Ci fib]
+23.6 +17.1 67 +27 +35 жарко 1015.9 996.4 +19.2

 

Местоположение метеостанции Кишинев (Молдова): широта 47.02 долгота 28.98 высота над уровнем моря 173 м.

В архиве по умолчанию представлена погода в Кишиневе за последнюю неделю. Архивные данные за месяц целиком и за предыдущие месяцы, начиная с января 2011 года, Вы можете получить, выбрав интересующий диапазон дат из раскрывающегося списка и нажав кнопку "Ввод!".


*Определитесь, кто Вы:
робот инопланетянин человек

Внимание! Время в таблицах - всемирное. Для получения местного времени необходимо прибавить поправку, которая равна 2 ч.

Смотрите также архив погоды в соседних городах и на ближайших метеорологических станциях:

Погода в Балцате (Молдова) (5 км)
Погода в Дубоссарах (Молдова) (29 км)
Погода в Кодрах (Молдова) (46 км)
Погода в Тирасполе (Молдова) (49 км)
Погода в Бравичах (Молдова) (57 км)
Погода в Штефан Водэ (Молдова) (67 км)
Погода в Корнестах (Молдова) (76 км)
Погода в Затишье (Одесская область, Украина) (76 км)
Погода в Леове (Молдова) (80 км)
Погода в Заставе (Одесская область, Украина) (81 км)

Пояснения к столбцам:

Ветер - указаны скорость ветра в м/с - средняя за 10 мин, порывы в срок и между сроками (в фигурных скобках) и направление, откуда дует ветер: С - северный, СВ - северо-восточный, В - восточный, ЮВ - юго-восточный, Ю - южный, ЮЗ - юго-западный, З - западный, СЗ - северо-западный.
Видимость - горизонтальная дальность видимости в метрах или километрах. При видимости от 1 до 10 км при отсутствии осадков обычно наблюдается дымка, при ухудшении видимости до 1 км и менее - туман. В сухую погоду видимость может ухудшаться дымом, пылью или мглою.
Явления - указаны атмосферные явления, наблюдавшиеся в срок или в последний час перед сроком; фигурными скобками обозначены явления, наблюдавшиеся между сроками (за 1-3 часа до срока); квадратными скобками обозначены град или гололедные отложения с указанием их диаметра в мм.
Облачность - указаны через наклонную черту общая и нижняя облачность в баллах и высота нижней границы облаков в метрах; квадратными скобками обозначены формы облаков: Ci - перистые, Cs - перисто-слоистые, Cc - перисто-кучевые, Ac - высококучевые, As - высокослоистые, Sc - слоисто-кучевые, Ns - слоисто-дождевые, Cu - кучевые, Cb - кучево-дождевые. Подробнее классификацию облаков см. в Атласе облаков (PDF).
T - Температура воздуха - температура, измеренная на высоте 2 м над землей.
Td - Температура точки росы - температура, при понижении до которой содержащийся в воздухе водяной пар достигнет насыщения.
f - Относительная влажность воздуха - влажноcть воздуха, измеренная на высоте 2 м над землей.
Te - Эффективная температура - температура, которую ощущает одетый по сезону человек в тени. Характеристика душности погоды. При расчете учитывается влияние влажности воздуха и скорости ветра на теплоощущения человека.
Tes - Эффективная температура на солнце - температура, которую ощущает человек, с поправкой на солнечный нагрев. Характеристика знойности погоды. Зависит от высоты солнца над горизонтом, облачности и скорости ветра. Ночью, в пасмурную погоду, а также при ветре 12 м/с и более поправка равна нулю.
P - Атмосферное давление - приведенное к уровню моря атмосферное давление.
Po - Атмосферное давление - измеренное на уровне метеостанции атмосферное давление.
Tmin - Минимальная температура - минимум температуры воздуха на высоте 2 м над землей.
Tmax - Максимальная температура - максимум температуры воздуха на высоте 2 м над землей.
R - Количество осадков - Количество выпавших осадков за период времени, мм. При наведении курсора мыши на число - период времени, за который выпало указанное количество осадков.
R24 - Количество осадков - Количество выпавших осадков за 24 часа, мм.
S - Снежный покров - Высота снежного покрова, см. При наведении курсора мыши на число - состояние снежного покрова и степень покрытия местности в баллах.